カタログに戻る

SHIYAN 21

SY-21

運用中科学VLEO
NORAD 54752·PAYLOAD·🇨🇳 China

打ち上げ Dec 16, 2022 から Xichang Satellite Launch Center

Loading…

次のパス (今後24時間)

TLE

最新Source: Space-Track

元期: Sep 14, 2026, 09:36 UTC

1 54752U 22172A   26257.40010010  .00006149  00000-0  22190-3 0  9992
2 54752  35.9898 233.8438 0026593 304.5073  55.3150 15.27693277209330

AllMySatでSHIYAN 21をリアルタイム追跡

Download on the App Store